Flag for U.S.A. Weather past 2 weeks in Brockton, Massachusetts, U.S.A.

Now
73 °F

Mild.


Feels Like: 72 °F
Forecast: 63 / 72 °F
Wind: 6 mph from Southwest

Location: East Milton

Current Time: Jul 24, 2014 at 1:27:24 AM

Latest Report: Jul 24, 2014 at 12:54 AM


Visibility: N/A

Pressure: 29.78 "Hg

Humidity: 84%

Dew point: 68 °F

Location of BrocktonLocation

Historic Weather in Brockton — Graph

°F

Brockton temperature yesterday

Maximum temperature yesterday: 88 °F (at 1:54 PM)
Minimum temperature yesterday: 68 °F (at 5:54 AM)
Average temperature yesterday: 78 °F

Past Weeks' High & Low Weather Summary

 TemperatureHumidityPressure
High88 °F (Jul 23, 1:54 PM)100% (Jul 14, 7:54 PM)30.30 "Hg (Jul 14, 7:54 PM)
Low59 °F (Jul 21, 2:54 AM)35% (Jul 12, 2:54 PM)29.70 "Hg (Jul 9, 1:54 AM)
Average71 °F76%30.06 "Hg
* Reported Jul 8 11:54 PM — Jul 23 11:54 PM, Brockton, Weather by CustomWeather, © 2014

Note: Actual official high and low records may vary slightly from our data, if they occured in-between our weather recording intervals... More about our weather records

Advertising

Brockton weather history for previous 24 hours

 ConditionsComfort  
Time TempWeatherWind HumidityBarometerVisibility
11:54 PM
Jul 23
73 °FMild.9 mph84%29.82 "HgN/A
10:54 PM74 °FMild.12 mph82%29.82 "HgN/A
9:54 PM74 °FMild.16 mph82%29.83 "HgN/A
8:54 PM74 °FMild.13 mph82%29.83 "HgN/A
7:54 PM76 °FMild.17 mph77%29.81 "HgN/A
6:54 PM79 °FWarm.16 mph74%29.80 "HgN/A
5:54 PM81 °FWarm.20 mph72%29.79 "HgN/A
4:54 PM84 °FWarm.17 mph65%29.80 "HgN/A
3:54 PM86 °FWarm.18 mph63%29.81 "HgN/A
2:54 PM87 °FWarm.17 mph59%29.83 "HgN/A
1:54 PM88 °FHot.17 mph57%29.85 "HgN/A
12:54 PM87 °FWarm.18 mph59%29.88 "HgN/A
11:54 AM84 °FWarm.14 mph63%29.90 "HgN/A
10:54 AM83 °FWarm.13 mph65%29.92 "HgN/A
9:54 AM80 °FWarm.10 mph71%29.93 "HgN/A
8:54 AM76 °FMild.13 mph77%29.96 "HgN/A
7:54 AM73 °FMild.14 mph79%29.96 "HgN/A
6:54 AM69 °FMild.13 mph87%29.96 "HgN/A
5:54 AM68 °FMild.13 mph87%29.97 "HgN/A
4:54 AM69 °FMild.14 mph84%29.97 "HgN/A
Weather by CustomWeather, © 2014

See weather overviewHow to use our weather pages